Rifle, CO

5:23 AM MDT on May 29, 2017 (GMT -0600)
Garfield County Regional

Weather History for KRIL - April, 2013

Change the Weather History Date:

Monday, April 29, 2013

  Actual Average Record
Temperature  
Mean Temperature 60 °F 52 °F  
Max Temperature 78 °F 67 °F 85 °F (1992)
Min Temperature 42 °F 36 °F 22 °F (1975)
Degree Days  
Heating Degree Days 5 13  
Month to date heating degree days 608 499  
Since 1 July heating degree days 6422 6283  
Cooling Degree Days 0 0  
Month to date cooling degree days 0 0  
Year to date cooling degree days 0 0  
Growing Degree Days 8 (Base 50)    
Moisture  
Dew Point 27 °F    
Average Humidity 38    
Maximum Humidity 62    
Minimum Humidity 13    
Precipitation  
Precipitation 0.00 in 0.05 in 0.60 in (1953)
Month to date precipitation 1.46 1.10  
Year to date precipitation 2.78 3.87  
Sea Level Pressure  
Sea Level Pressure 29.71 in    
Wind  
Wind Speed 12 mph (WSW)    
Max Wind Speed 30 mph    
Max Gust Speed 37 mph    
Visibility 10 miles    
Events      
T = Trace of Precipitation, MM = Missing Value Source: NWS Daily Summary

Daily Weather History Graph

Daily Weather History Graph

Search for Another Location

Airport or City:

Trip Planner

Search our weather history database for the weather conditions in past years. The results will help you decide how hot, cold, wet, or windy it might be!

Date:

Astronomy

Apr. 29, 2013 Rise Set
Actual Time 6:13 AM MDT 8:03 PM MDT
Civil Twilight 5:45 AM MDT 8:32 PM MDT
Nautical Twilight 5:10 AM MDT 9:07 PM MDT
Astronomical Twilight 4:32 AM MDT 9:45 PM MDT
Moon No Moon Rise 9:38 AM MDT
Length of Visible Light 14h 47m
Length of Day
13h 49m
Waning Gibbous, 79% of the Moon is Illuminated
Apr 29
Waning Gibbous
May 2
Last Quarter
May 9
New
May 17
First Quarter
May 24
Full

Hourly Weather History & Observations

Time (MDT) Temp. Windchill Dew Point Humidity Pressure Visibility Wind Dir Wind Speed Gust Speed Precip Events Conditions
12:53 AM 55.9 °F - 28.9 °F 36% 29.81 in 10.0 mi SE 6.9 mph - N/A   Scattered Clouds
1:53 AM 53.1 °F - 30.0 °F 41% 29.80 in 10.0 mi Variable 5.8 mph - N/A   Clear
2:53 AM 52.0 °F - 30.0 °F 43% 29.80 in 10.0 mi Variable 4.6 mph - N/A   Mostly Cloudy
3:53 AM 48.9 °F - 32.0 °F 52% 29.80 in 10.0 mi Calm Calm - N/A   Scattered Clouds
4:53 AM 46.0 °F 42.5 °F 30.9 °F 56% 29.81 in 10.0 mi WSW 6.9 mph - N/A   Clear
5:53 AM 45.0 °F 43.5 °F 28.9 °F 53% 29.82 in 10.0 mi Variable 3.5 mph - N/A   Clear
6:53 AM 42.1 °F 39.2 °F 30.0 °F 62% 29.85 in 10.0 mi ESE 4.6 mph - N/A   Clear
7:53 AM 46.9 °F - 32.0 °F 56% 29.85 in 10.0 mi Calm Calm - N/A   Clear
8:53 AM 53.1 °F - 30.9 °F 43% 29.84 in 10.0 mi North 5.8 mph - N/A   Clear
9:53 AM 59.0 °F - 28.9 °F 32% 29.81 in 10.0 mi West 8.1 mph - N/A   Clear
10:53 AM 64.0 °F - 28.9 °F 27% 29.77 in 10.0 mi NNW 6.9 mph - N/A   Clear
11:53 AM 71.1 °F - 27.0 °F 19% 29.72 in 10.0 mi WSW 19.6 mph 25.3 mph N/A   Clear
12:53 PM 73.0 °F - 25.0 °F 17% 29.69 in 10.0 mi West 16.1 mph 31.1 mph N/A   Clear
1:53 PM 75.9 °F - 23.0 °F 14% 29.65 in 10.0 mi West 25.3 mph 31.1 mph N/A   Clear
2:53 PM 75.9 °F - 23.0 °F 14% 29.62 in 10.0 mi WSW 16.1 mph 28.8 mph N/A   Clear
3:53 PM 75.9 °F - 23.0 °F 14% 29.60 in 10.0 mi West 25.3 mph 33.4 mph N/A   Clear
4:53 PM 75.0 °F - 21.9 °F 14% 29.61 in 10.0 mi WSW 20.7 mph 32.2 mph N/A   Clear
5:53 PM 75.9 °F - 23.0 °F 14% 29.60 in 10.0 mi WSW 25.3 mph 33.4 mph N/A   Clear
6:53 PM 73.0 °F - 21.9 °F 15% 29.61 in 10.0 mi WSW 19.6 mph - N/A   Clear
7:53 PM 71.1 °F - 19.9 °F 14% 29.60 in 10.0 mi WSW 18.4 mph - N/A   Clear
8:53 PM 66.0 °F - 23.0 °F 20% 29.60 in 10.0 mi WSW 10.4 mph - N/A   Clear
9:53 PM 61.0 °F - 24.1 °F 24% 29.60 in 10.0 mi WSW 11.5 mph - N/A   Clear
10:53 PM 57.0 °F - 28.0 °F 33% 29.61 in 10.0 mi North 10.4 mph - N/A   Clear
11:53 PM 52.0 °F - 28.9 °F 41% 29.59 in 10.0 mi WSW 5.8 mph - N/A   Clear